Flint, MI

1:09 AM EST on January 21, 2018 (GMT -0500)
Bishop International

Weather History for KFNT - June, 2014

Change the Weather History Date:

Friday, June 27, 2014

  Actual Average Record
Temperature  
Mean Temperature 71 °F 70 °F  
Max Temperature 84 °F 81 °F 100 °F (1933)
Min Temperature 57 °F 58 °F 44 °F (1988)
Degree Days  
Heating Degree Days 0 1  
Month to date heating degree days 22 63  
Since 1 June heating degree days 22 63  
Since 1 July heating degree days 7479 6950  
Cooling Degree Days 6 5  
Month to date cooling degree days 113 94  
Year to date cooling degree days 161 126  
Since 1 June cooling degree days 113 94  
Growing Degree Days 20 (Base 50)    
Moisture  
Dew Point 58 °F    
Average Humidity 65    
Maximum Humidity 84    
Minimum Humidity 46    
Precipitation  
Precipitation 0.00 in 0.10 in 1.22 in (1935)
Month to date precipitation 2.43 2.78  
Year to date precipitation 17.38 13.77  
Snow  
Snow 0.00 in 0.00 in 0.00 in ()
Month to date snowfall 0.0 0.0  
Since 1 June snowfall 0.0 0.0  
Since 1 July snowfall 83.9 47.4  
Snow Depth 0.00 in    
Sea Level Pressure  
Sea Level Pressure 30.10 in    
Wind  
Wind Speed 4 mph (SE)    
Max Wind Speed 10 mph    
Max Gust Speed 14 mph    
Visibility 10 miles    
Events      
T = Trace of Precipitation, MM = Missing Value Source: NWS Daily Summary

Daily Weather History Graph

Daily Weather History Graph

Search for Another Location

Airport or City:

Trip Planner

Search our weather history database for the weather conditions in past years. The results will help you decide how hot, cold, wet, or windy it might be!

Date:

Astronomy

Jun. 27, 2014 Rise Set
Actual Time 5:57 AM EDT 9:18 PM EDT
Civil Twilight 5:22 AM EDT 9:53 PM EDT
Nautical Twilight 4:36 AM EDT 10:39 PM EDT
Astronomical Twilight 3:40 AM EDT 11:35 PM EDT
Moon 6:29 AM EDT (6/27) 9:19 PM EDT (6/27)
Length of Visible Light 16h 30m
Length of Day
15h 20m
New Moon, 0% of the Moon is Illuminated
Jun 27
New Moon
Jul 5
First Quarter
Jul 12
Full
Jul 18
Last Quarter
Jul 26
New

Hourly Weather History & Observations

Time (EDT) Temp. Heat Index Dew Point Humidity Pressure Visibility Wind Dir Wind Speed Gust Speed Precip Events Conditions
12:53 AM 64.9 °F - 55.9 °F 73% 30.09 in 10.0 mi Calm Calm - N/A   Clear
1:53 AM 64.0 °F - 55.0 °F 73% 30.09 in 10.0 mi East 3.5 mph - N/A   Clear
2:53 AM 63.0 °F - 54.0 °F 72% 30.08 in 10.0 mi Calm Calm - N/A   Clear
3:53 AM 59.0 °F - 54.0 °F 83% 30.08 in 10.0 mi Calm Calm - N/A   Clear
4:53 AM 60.1 °F - 54.0 °F 80% 30.09 in 10.0 mi Calm Calm - N/A   Clear
5:53 AM 59.0 °F - 53.1 °F 81% 30.11 in 10.0 mi Calm Calm - N/A   Clear
6:53 AM 60.1 °F - 55.0 °F 83% 30.12 in 10.0 mi Calm Calm - N/A   Partly Cloudy
7:53 AM 64.9 °F - 53.1 °F 65% 30.12 in 10.0 mi Calm Calm - N/A   Clear
8:53 AM 70.0 °F - 53.1 °F 55% 30.12 in 10.0 mi SE 3.5 mph - N/A   Clear
9:53 AM 73.9 °F - 55.0 °F 52% 30.13 in 10.0 mi SSE 4.6 mph - N/A   Clear
10:53 AM 75.9 °F - 57.9 °F 54% 30.13 in 10.0 mi ESE 4.6 mph - N/A   Clear
11:53 AM 78.1 °F - 60.1 °F 54% 30.13 in 10.0 mi SE 6.9 mph - N/A   Clear
12:53 PM 80.1 °F 81.1 °F 61.0 °F 52% 30.12 in 10.0 mi SSE 4.6 mph - N/A   Partly Cloudy
1:53 PM 80.6 °F 81.5 °F 60.8 °F 51% 30.12 in 10.0 mi South 4.6 mph - N/A   Partly Cloudy
2:53 PM 82.0 °F 82.7 °F 61.0 °F 49% 30.11 in 10.0 mi Variable 4.6 mph - N/A   Partly Cloudy
3:53 PM 82.0 °F 82.1 °F 59.0 °F 45% 30.10 in 10.0 mi Variable 3.5 mph - N/A   Clear
4:53 PM 81.0 °F 81.7 °F 61.0 °F 50% 30.09 in 10.0 mi ESE 8.1 mph - N/A   Clear
5:53 PM 82.9 °F 83.2 °F 60.1 °F 46% 30.08 in 10.0 mi SSE 6.9 mph - N/A   Clear
6:53 PM 82.0 °F 82.7 °F 61.0 °F 49% 30.07 in 10.0 mi SE 9.2 mph - N/A   Partly Cloudy
7:53 PM 79.0 °F - 62.1 °F 56% 30.07 in 10.0 mi SE 4.6 mph - N/A   Clear
8:53 PM 75.9 °F - 61.0 °F 60% 30.07 in 10.0 mi SE 5.8 mph - N/A   Clear
9:53 PM 73.9 °F - 59.0 °F 59% 30.08 in 10.0 mi SE 8.1 mph - N/A   Clear
10:53 PM 72.0 °F - 59.0 °F 64% 30.10 in 10.0 mi SE 5.8 mph - N/A   Clear
11:53 PM 70.0 °F - 59.0 °F 68% 30.10 in 10.0 mi SSE 3.5 mph - N/A   Clear